Location: *
(2.5500°S, 65.9667°W)
Time: 20:37:23
(UTC+00:00)

deb Explorer IX - Visible Passes

Search period start: 12 April 2024 00:00
Search period end: 22 April 2024 00:00
Orbit: 513 x 905 km, 38.7° (Epoch: 12 April)

Date Brightness Start Highest point End Pass type
(mag) Time Alt. Az. Time Alt. Az. Time Alt. Az.
17 Apr ? 00:39:48 10° NNW 00:40:45 15° NNW 00:40:45 15° NNW visible
17 Apr ? 23:42:11 10° NNW 23:45:59 22° NE 23:45:59 22° NE visible
18 Apr ? 22:45:30 10° NNE 22:47:37 12° NE 22:49:40 10° ENE visible
19 Apr ? 00:27:10 10° NW 00:30:12 35° NW 00:30:12 35° NW visible
19 Apr ? 23:28:51 10° NNW 23:33:57 47° NE 23:35:28 35° E visible
21 Apr ? 00:15:03 10° WNW 00:19:40 40° SW 00:19:40 40° SW visible
21 Apr ? 23:16:05 10° NW 23:21:34 81° SW 23:24:54 21° SE visible
